Date String (YYYY-MM-DD hh:mm:ss) UTC,Instrument flags,Ambient pressure (hPa),Sample flow (lpm),Bypass flow (lpm),Sample temperature (°C),Ambient temperature (°C),ASC tube jacket temperature (°C),LED temperature (°C),Box temperature (°C),Sample RH (%),Span deviation,Mass concentration (μg/m³),Mass concentration (μg/m³),Mass concentration (μg/m³)
DateTimeUTC,F1_M11,P_M11,Q1_M11,Q2_M11,T1_M11,T2_M11,T3_M11,T4_M11,T5_M11,U1_M11,ZSPAN_M11,X0_M11,X2_M11,X1_M11
2021-08-29 19:00:00,,0831.2,4.99,0.00,29.6,26.3,00.0,38.7,30.9,30.7,0000.8,0026.63,0014.93,0013.87
2021-08-29 19:01:00,,0831.2,5.01,0.00,29.5,26.0,00.0,38.6,30.8,30.7,0000.8,0026.17,0014.95,0013.87
2021-08-29 19:02:00,,0831.2,4.99,0.00,29.4,26.4,00.0,38.6,30.9,30.8,0000.9,0026.73,0015.01,0013.91
2021-08-29 19:03:00,,0831.2,5.00,0.00,29.4,26.8,00.0,38.6,31.0,31.3,0001.0,0026.47,0015.06,0013.94
2021-08-29 19:04:00,,0831.2,4.99,0.00,29.4,27.3,00.0,38.5,31.1,31.2,0001.3,0026.37,0015.16,0013.98
2021-08-29 19:05:00,,0831.2,5.00,0.00,29.4,27.6,00.0,38.5,31.2,30.8,0001.4,0025.88,0015.21,0014.01
2021-08-29 19:06:00,,0831.2,5.00,0.00,29.4,27.9,00.0,38.5,31.2,30.7,0001.4,0026.05,0015.29,0014.04
2021-08-29 19:07:00,,0831.2,5.01,0.00,29.5,28.2,00.0,38.5,31.3,30.6,0001.5,0025.50,0015.35,0014.08
2021-08-29 19:08:00,,0831.2,4.99,0.00,29.5,28.4,00.0,38.6,31.4,30.6,0001.5,0024.04,0015.46,0014.16
2021-08-29 19:09:00,,0831.2,4.99,0.00,29.6,28.5,00.0,38.6,31.4,31.1,0001.7,0024.25,0015.51,0014.17
2021-08-29 19:10:00,,0831.2,5.01,0.00,29.6,28.7,00.0,38.6,31.5,31.0,0001.7,0023.92,0015.49,0014.17
2021-08-29 19:11:00,,0831.2,5.00,0.00,29.6,28.8,00.0,38.6,31.5,31.3,0001.8,0023.58,0015.46,0014.20
2021-08-29 19:12:00,,0831.1,5.00,0.00,29.7,28.8,00.0,38.6,31.6,30.7,0002.0,0023.74,0015.55,0014.26
2021-08-29 19:13:00,,0831.1,5.01,0.00,29.6,27.6,00.0,38.6,31.2,30.2,0002.3,0023.21,0015.59,0014.33
2021-08-29 19:14:00,,0831.0,5.01,0.00,29.5,26.1,00.0,38.6,30.8,30.8,0002.2,0022.59,0015.61,0014.38
2021-08-29 19:15:00,,0831.0,5.00,0.00,29.4,26.0,00.0,38.6,30.8,31.7,0002.2,0022.40,0015.58,0014.40
2021-08-29 19:16:00,,0831.0,5.00,0.00,29.3,26.4,00.0,38.6,30.9,31.4,0002.2,0022.68,0015.63,0014.44
2021-08-29 19:17:00,,0831.0,5.00,0.00,29.3,26.8,00.0,38.5,31.0,31.0,0002.2,0022.56,0015.65,0014.50
2021-08-29 19:18:00,,0830.9,5.01,0.00,29.3,27.3,00.0,38.5,31.1,30.9,0002.0,0022.56,0015.69,0014.56
2021-08-29 19:19:00,,0830.9,5.00,0.00,29.4,27.6,00.0,38.5,31.1,30.9,0001.8,0023.49,0015.75,0014.62
2021-08-29 19:20:00,,0830.9,5.00,0.00,29.4,28.0,00.0,38.5,31.2,30.8,0001.5,0023.54,0015.84,0014.70
2021-08-29 19:21:00,,0830.9,5.01,0.00,29.4,28.2,00.0,38.5,31.3,30.7,0001.5,0023.73,0015.98,0014.81
2021-08-29 19:22:00,,0830.9,4.99,0.00,29.5,28.4,00.0,38.5,31.4,30.8,0001.6,0023.96,0016.02,0014.87
2021-08-29 19:23:00,,0830.9,5.00,0.00,29.5,28.6,00.0,38.5,31.4,30.8,0001.5,0023.83,0016.05,0014.89
2021-08-29 19:24:00,,0830.9,5.00,0.00,29.6,28.7,00.0,38.5,31.4,31.0,0001.3,0023.64,0016.02,0014.87
2021-08-29 19:25:00,,0830.9,4.99,0.00,29.6,28.8,00.0,38.6,31.5,30.6,0001.3,0023.70,0016.08,0014.89
2021-08-29 19:26:00,,0830.9,5.02,0.00,29.7,28.8,00.0,38.6,31.5,30.8,0001.3,0023.47,0016.15,0014.93
2021-08-29 19:27:00,,0830.9,4.99,0.00,29.6,27.4,00.0,38.6,31.2,31.1,0001.2,0023.30,0016.15,0014.93
2021-08-29 19:28:00,,0830.8,5.00,0.00,29.5,26.1,00.0,38.6,30.9,31.5,0001.2,0023.44,0016.17,0014.95
2021-08-29 19:29:00,,0830.9,5.01,0.00,29.4,26.0,00.0,38.6,30.8,32.3,0001.4,0023.29,0016.19,0014.95
2021-08-29 19:30:00,,0830.8,5.00,0.00,29.3,26.5,00.0,38.5,30.9,31.3,0001.3,0023.07,0016.16,0014.92
2021-08-29 19:31:00,,0830.8,5.00,0.00,29.3,26.9,00.0,38.5,31.0,31.0,0001.4,0023.76,0016.18,0014.92
2021-08-29 19:32:00,,0830.7,4.99,0.00,29.3,27.4,00.0,38.5,31.1,31.5,0001.5,0023.70,0016.15,0014.91
2021-08-29 19:33:00,,0830.7,5.00,0.00,29.4,27.7,00.0,38.5,31.2,31.6,0001.5,0023.98,0016.13,0014.90
2021-08-29 19:34:00,,0830.7,5.01,0.00,29.4,28.0,00.0,38.5,31.3,31.1,0001.5,0023.74,0016.11,0014.93
2021-08-29 19:35:00,,0830.8,5.00,0.00,29.5,28.3,00.0,38.5,31.3,31.0,0001.6,0023.74,0016.13,0014.97
2021-08-29 19:36:00,,0830.8,5.00,0.00,29.5,28.4,00.0,38.5,31.4,31.1,0001.5,0024.20,0016.11,0014.98
2021-08-29 19:37:00,,0830.8,4.99,0.00,29.6,28.6,00.0,38.5,31.5,31.1,0001.4,0024.73,0016.10,0015.00
2021-08-29 19:38:00,,0830.8,5.00,0.00,29.6,28.7,00.0,38.6,31.5,31.2,0001.3,0024.82,0016.12,0015.03
2021-08-29 19:39:00,,0830.8,5.01,0.00,29.6,28.5,00.0,38.6,31.5,30.8,0001.4,0025.02,0016.14,0015.05
2021-08-29 19:40:00,,0830.8,5.00,0.00,29.6,27.0,00.0,38.6,31.1,31.3,0001.3,0025.93,0016.12,0015.07
2021-08-29 19:41:00,,0830.7,5.01,0.00,29.4,25.9,00.0,38.5,30.7,31.1,0001.4,0026.71,0016.16,0015.12
2021-08-29 19:42:00,,0830.6,4.99,0.00,29.3,26.0,00.0,38.5,30.8,31.0,0001.3,0025.60,0016.18,0015.16
2021-08-29 19:43:00,,0830.6,5.00,0.00,29.3,26.5,00.0,38.5,30.8,31.5,0001.3,0025.11,0016.24,0015.18
2021-08-29 19:44:00,,0830.6,5.00,0.00,29.3,27.0,00.0,38.5,30.9,31.5,0001.1,0024.57,0016.26,0015.20
2021-08-29 19:45:00,,0830.6,5.00,0.00,29.3,27.4,00.0,38.4,31.0,31.9,0001.2,0024.78,0016.29,0015.20
2021-08-29 19:46:00,,0830.5,4.99,0.00,29.3,27.7,00.0,38.4,31.1,31.2,0001.1,0025.16,0016.28,0015.19
2021-08-29 19:47:00,,0830.5,5.00,0.00,29.4,28.0,00.0,38.4,31.2,31.3,0001.3,0025.01,0016.34,0015.22
2021-08-29 19:48:00,,0830.5,5.01,0.00,29.4,28.3,00.0,38.4,31.3,31.1,0001.3,0024.26,0016.35,0015.23
2021-08-29 19:49:00,,0830.4,5.00,0.00,29.5,28.4,00.0,38.5,31.4,31.2,0001.4,0024.13,0016.36,0015.25
2021-08-29 19:50:00,,0830.4,5.00,0.00,29.5,28.6,00.0,38.5,31.4,31.4,0001.5,0024.33,0016.40,0015.25
2021-08-29 19:51:00,,0830.4,5.00,0.00,29.6,28.8,00.0,38.5,31.5,31.1,0001.6,0023.92,0016.42,0015.26
2021-08-29 19:52:00,,0830.4,5.00,0.00,29.6,28.8,00.0,38.6,31.5,30.8,0001.7,0022.68,0016.41,0015.29
2021-08-29 19:53:00,,0830.4,5.01,0.00,29.6,27.6,00.0,38.6,31.2,31.6,0001.9,0022.69,0016.43,0015.29
2021-08-29 19:54:00,,0830.3,5.01,0.00,29.4,26.2,00.0,38.5,30.8,31.7,0001.8,0022.73,0016.44,0015.30
2021-08-29 19:55:00,,0830.2,5.00,0.00,29.3,26.0,00.0,38.5,30.8,31.9,0001.7,0022.80,0016.50,0015.34
2021-08-29 19:56:00,,0830.3,4.99,0.00,29.3,26.4,00.0,38.5,30.9,32.0,0001.7,0022.86,0016.54,0015.38
2021-08-29 19:57:00,,0830.3,5.00,0.00,29.3,26.9,00.0,38.4,30.9,31.6,0001.8,0023.07,0016.59,0015.41
2021-08-29 19:58:00,,0830.2,5.00,0.00,29.3,27.3,00.0,38.4,31.0,31.3,0001.7,0023.07,0016.63,0015.44
2021-08-29 19:59:00,,0830.2,5.01,0.00,29.3,27.7,00.0,38.4,31.1,31.3,0001.7,0023.58,0016.59,0015.44
